Total_Precipitation_Accumulation
0.95 3.17 2.37 1.67 2.31 2.74 3.03 2.16 2.01 1.75 1.28 0.72 0.34 0.35 0.48 0.27 0.18 0.09 0.06 0.04 0.02 0.01 0.00 0.00 0.00 0.00 0.00 0.00 0.00 0.00 0.00 0.00
0.15 0.63 1.03 0.81 1.41 2.50 2.87 3.14 2.58 1.89 1.47 1.25 0.44 0.45 0.35 0.36 0.21 0.14 0.05 0.01 0.01 0.00 0.00 0.00 0.00 0.00 0.00 0.00 0.00 0.00 0.00 0.00
0.04 0.12 0.21 0.36 0.60 1.55 2.13 3.10 2.85 1.82 1.43 1.99 0.78 0.36 0.38 0.30 0.12 0.09 0.09 0.03 0.00 0.00 0.00 0.00 0.00 0.00 0.00 0.00 0.00 0.00 0.00 0.00
0.03 0.04 0.11 0.28 0.46 0.71 1.19 2.10 4.07 2.00 1.39 1.70 1.40 0.47 0.39 0.24 0.17 0.09 0.07 0.02 0.00 0.00 0.00 0.00 0.00 0.00 0.00 0.00 0.00 0.00 0.00 0.00
0.01 0.07 0.04 0.16 0.26 0.88 1.28 1.57 3.53 3.06 1.45 1.09 1.47 0.56 0.50 0.30 0.17 0.21 0.08 0.01 0.00 0.00 0.00 0.00 0.00 0.00 0.00 0.00 0.00 0.00 0.00 0.00
0.05 0.05 0.06 0.09 0.21 0.60 1.40 0.98 1.60 3.44 1.60 1.14 0.92 0.90 0.38 0.28 0.12 0.12 0.06 0.00 0.00 0.00 0.00 0.00 0.00 0.00 0.00 0.00 0.00 0.00 0.00 0.00
0.05 0.12 0.13 0.19 0.31 0.68 1.07 0.62 0.94 2.40 1.96 1.26 0.55 0.67 0.41 0.21 0.13 0.04 0.01 0.00 0.00 0.00 0.00 0.00 0.00 0.00 0.00 0.00 0.00 0.00 0.00 0.00
0.02 0.05 0.06 0.21 0.43 0.49 0.94 0.66 0.75 1.71 2.10 1.36 0.71 0.33 0.38 0.16 0.09 0.04 0.00 0.00 0.00 0.00 0.00 0.00 0.00 0.00 0.00 0.00 0.00 0.00 0.00 0.00
0.01 0.02 0.04 0.28 0.49 0.53 0.68 0.68 0.58 0.99 1.70 1.30 1.21 0.47 0.31 0.18 0.11 0.05 0.01 0.00 0.00 0.00 0.00 0.00 0.00 0.00 0.00 0.00 0.00 0.00 0.00 0.00
0.02 0.01 0.02 0.24 0.52 0.61 0.71 0.66 0.51 0.66 1.22 1.18 1.17 1.11 0.35 0.18 0.11 0.06 0.02 0.01 0.00 0.00 0.00 0.00 0.00 0.00 0.00 0.00 0.00 0.00 0.00 0.00
0.03 0.04 0.03 0.22 0.42 0.47 0.77 0.64 0.49 0.51 0.99 1.04 0.83 1.27 0.66 0.14 0.08 0.08 0.05 0.02 0.00 0.00 0.00 0.00 0.00 0.00 0.00 0.00 0.00 0.00 0.00 0.00
0.03 0.02 0.02 0.08 0.24 0.33 0.73 0.64 0.55 0.55 0.85 0.80 0.70 0.89 0.83 0.23 0.09 0.05 0.11 0.05 0.04 0.01 0.00 0.00 0.00 0.00 0.00 0.00 0.00 0.00 0.00 0.00
0.01 0.03 0.08 0.13 0.05 0.31 0.73 0.68 0.55 0.60 0.70 0.67 0.56 0.65 0.57 0.31 0.06 0.04 0.06 0.04 0.05 0.02 0.00 0.01 0.01 0.01 0.00 0.00 0.00 0.00 0.00 0.00
0.00 0.02 0.06 0.06 0.06 0.20 0.47 0.55 0.56 0.51 0.62 0.58 0.53 0.57 0.39 0.17 0.07 0.03 0.02 0.03 0.03 0.02 0.01 0.02 0.02 0.02 0.01 0.00 0.00 0.00 0.00 0.00
0.00 0.01 0.08 0.10 0.04 0.07 0.30 0.52 0.63 0.78 0.95 0.86 0.58 0.49 0.32 0.17 0.07 0.03 0.02 0.02 0.01 0.01 0.00 0.01 0.02 0.02 0.02 0.00 0.00 0.00 0.00 0.00
0.00 0.01 0.01 0.03 0.01 0.01 0.14 0.47 0.52 0.68 0.72 0.95 0.62 0.46 0.35 0.25 0.13 0.05 0.04 0.04 0.02 0.02 0.01 0.02 0.02 0.02 0.02 0.01 0.00 0.00 0.01 0.00
0.00 0.00 0.00 0.01 0.00 0.00 0.03 0.14 0.27 0.47 0.72 1.02 1.13 0.75 0.45 0.27 0.18 0.09 0.09 0.09 0.14 0.06 0.04 0.05 0.06 0.04 0.04 0.03 0.02 0.01 0.01 0.01
0.00 0.00 0.00 0.02 0.01 0.00 0.01 0.03 0.03 0.15 0.42 0.70 1.30 1.36 0.81 0.45 0.26 0.17 0.16 0.16 0.19 0.15 0.13 0.11 0.14 0.12 0.08 0.05 0.03 0.03 0.04 0.06
0.00 0.00 0.01 0.01 0.01 0.00 0.00 0.01 0.00 0.01 0.07 0.23 0.54 1.33 1.33 0.76 0.35 0.22 0.23 0.23 0.24 0.26 0.24 0.21 0.18 0.20 0.14 0.13 0.12 0.07 0.07 0.10
0.00 0.00 0.00 0.01 0.01 0.01 0.00 0.00 0.00 0.00 0.01 0.06 0.18 0.38 0.91 0.94 0.66 0.35 0.29 0.30 0.32 0.36 0.45 0.40 0.32 0.31 0.34 0.24 0.20 0.13 0.09 0.08